Location: Unspecified
(0.0000°N, 0.0000°E)
Time: 14:56:57
(UTC+00:00)

SEEDS - Visible Passes

Search period start: 25 September 2021 00:00
Search period end: 05 October 2021 00:00
Orbit: 584 x 602 km, 97.6° (Epoch: 24 September)

Date Brightness Start Highest point End Pass type
(mag) Time Alt. Az. Time Alt. Az. Time Alt. Az.
25 Sep ? 03:44:07 10° NE 03:47:49 30° ESE 03:51:30 10° SSE visible
25 Sep ? 05:22:50 10° WNW 05:23:08 10° WNW 05:23:25 10° W visible
26 Sep ? 03:52:47 10° NNE 03:56:45 40° ESE 04:00:44 10° S visible
27 Sep ? 04:01:34 10° NNE 04:05:42 56° E 04:09:52 10° S visible
28 Sep ? 04:10:27 10° NNE 04:14:40 78° ESE 04:18:53 10° S visible
29 Sep ? 04:19:24 10° N 04:23:37 76° W 04:27:50 10° SSW visible
30 Sep ? 04:28:26 10° N 04:32:34 55° W 04:36:42 10° SSW visible
01 Oct ? 04:37:33 10° N 04:41:31 40° W 04:45:28 10° SSW visible
02 Oct ? 03:14:31 10° E 03:15:08 10° ESE 03:15:45 10° ESE visible
02 Oct ? 04:46:47 10° NNW 04:50:26 29° WNW 04:54:08 10° SW visible
03 Oct ? 03:21:49 10° ENE 03:24:04 14° ESE 03:26:19 10° SE visible
03 Oct ? 04:56:08 10° NNW 04:59:23 22° WNW 05:02:39 10° SW visible
04 Oct ? 03:30:00 10° NE 03:33:01 19° ESE 03:36:00 10° SSE visible
04 Oct ? 05:05:40 10° NW 05:08:19 16° WNW 05:10:59 10° WSW visible
